TDRS 6

Last updated on Sun Jun 21 2026 00:02:59 GMT+0000 (Coordinated Universal Time)

1 22314U 93003B 26171.04410444 -.00000307 00000+0 00000+0 0 9994 2 22314 14.1828 357.0374 0008209 178.4700 62.8072 1.00270344122431
UTC large
Height (km)
Speed (km/s)
/
Latitude / Longitude
Inclination (degrees)
Orbital Period (minutes)
Azimuth
Elevation
Range (km)
Doppler Factor

Next 0 passes for location: London (51.5072 / 0.1276)

No passes found over London.
TDRS 6